Year,Month,Day,Hour,Minute,Value (Times are PST for temperature in C)
2011,04,15,07,02,-1.10
2011,04,15,07,03,-1.10
2011,04,15,07,04,-1.10
2011,04,15,07,05,-1.10
2011,04,15,07,06,-1.10
2011,04,15,07,07,-1.10
2011,04,15,07,08,-1.00
2011,04,15,07,09,-1.00
2011,04,15,07,10,-1.00
2011,04,15,07,11,-1.00
2011,04,15,07,12,-1.00
2011,04,15,07,13,-1.00
2011,04,15,07,14,-1.00
2011,04,15,07,15,-0.90
2011,04,15,07,16,-0.90
2011,04,15,07,17,-0.90
2011,04,15,07,18,-0.90
2011,04,15,07,19,-0.80
2011,04,15,07,20,-0.80
2011,04,15,07,21,-0.80
2011,04,15,07,22,-0.80
2011,04,15,07,23,-0.80
2011,04,15,07,24,-0.80
2011,04,15,07,25,-0.70
2011,04,15,07,26,-0.70
2011,04,15,07,27,-0.70
2011,04,15,07,28,-0.70
2011,04,15,07,29,-0.60
2011,04,15,07,30,-0.60
2011,04,15,07,31,-0.60
2011,04,15,07,32,-0.50
2011,04,15,07,33,-0.50
2011,04,15,07,34,-0.50
2011,04,15,07,35,-0.50
2011,04,15,07,36,-0.40
2011,04,15,07,37,-0.40
2011,04,15,07,38,-0.40
2011,04,15,07,39,-0.30
2011,04,15,07,40,-0.30
2011,04,15,07,41,-0.30
2011,04,15,07,42,-0.30
2011,04,15,07,43,-0.30
2011,04,15,07,44,-0.30
2011,04,15,07,45,-0.20
2011,04,15,07,46,-0.20
2011,04,15,07,47,-0.20
2011,04,15,07,48,-0.20
2011,04,15,07,49,-0.20
2011,04,15,07,50,-0.20
2011,04,15,07,51,-0.10
2011,04,15,07,52,-0.10
2011,04,15,07,53,-0.10
2011,04,15,07,54,-0.10
2011,04,15,07,55,0.00
2011,04,15,07,56,0.00
2011,04,15,07,57,0.00
2011,04,15,07,58,0.10
2011,04,15,07,59,0.10
2011,04,15,08,00,0.10
2011,04,15,08,01,0.10
2011,04,15,08,02,0.20
2011,04,15,08,03,0.20
2011,04,15,08,04,0.30
2011,04,15,08,05,0.40
2011,04,15,08,06,0.40
2011,04,15,08,07,0.50
2011,04,15,08,08,0.60
2011,04,15,08,09,0.60
2011,04,15,08,10,0.70
2011,04,15,08,11,0.70
2011,04,15,08,12,0.80
2011,04,15,08,13,0.80
2011,04,15,08,14,0.90
2011,04,15,08,15,1.00
2011,04,15,08,16,1.00
2011,04,15,08,17,1.10
2011,04,15,08,18,1.10
2011,04,15,08,19,1.10
2011,04,15,08,20,1.10
2011,04,15,08,21,1.10
2011,04,15,08,22,1.20
2011,04,15,08,23,1.20
2011,04,15,08,24,1.20
2011,04,15,08,25,1.30
2011,04,15,08,26,1.30
2011,04,15,08,27,1.30
2011,04,15,08,28,1.30
2011,04,15,08,29,1.30
2011,04,15,08,30,1.40
2011,04,15,08,31,1.50
2011,04,15,08,32,1.60
2011,04,15,08,33,1.60
2011,04,15,08,34,1.70
2011,04,15,08,35,1.80
2011,04,15,08,36,1.90
2011,04,15,08,37,1.90
2011,04,15,08,38,2.00
2011,04,15,08,39,2.10
2011,04,15,08,40,2.20
2011,04,15,08,41,2.30
2011,04,15,08,42,2.30
2011,04,15,08,43,2.40
2011,04,15,08,44,2.40
2011,04,15,08,45,2.50
2011,04,15,08,46,2.60
2011,04,15,08,47,2.70
2011,04,15,08,48,2.70
2011,04,15,08,49,2.80
2011,04,15,08,50,2.90
2011,04,15,08,51,3.00
2011,04,15,08,52,3.10
2011,04,15,08,53,3.20
2011,04,15,08,54,3.30
2011,04,15,08,55,3.40
2011,04,15,08,56,3.50
2011,04,15,08,57,3.70
2011,04,15,08,58,3.80
2011,04,15,08,59,3.90
2011,04,15,09,00,4.00
2011,04,15,09,01,4.10
2011,04,15,09,02,4.20
2011,04,15,09,03,4.30
2011,04,15,09,04,4.50
2011,04,15,09,05,4.60
2011,04,15,09,06,4.70
2011,04,15,09,07,4.80
2011,04,15,09,08,4.80
2011,04,15,09,09,4.90
2011,04,15,09,10,5.00
2011,04,15,09,11,5.10
2011,04,15,09,12,5.10
2011,04,15,09,13,5.20
2011,04,15,09,14,5.20
2011,04,15,09,15,5.20
2011,04,15,09,16,5.10
2011,04,15,09,17,5.10
2011,04,15,09,18,5.10
2011,04,15,09,19,5.10
2011,04,15,09,20,5.10
2011,04,15,09,21,5.10
2011,04,15,09,22,5.10
2011,04,15,09,23,5.10
2011,04,15,09,24,5.20
2011,04,15,09,25,5.20
2011,04,15,09,26,5.30
2011,04,15,09,27,5.40
2011,04,15,09,28,5.30
2011,04,15,09,29,5.30
2011,04,15,09,30,5.30
2011,04,15,09,31,5.30
2011,04,15,09,32,5.30
2011,04,15,09,33,5.40
2011,04,15,09,34,5.40
2011,04,15,09,35,5.50
2011,04,15,09,36,5.40
2011,04,15,09,37,5.40
2011,04,15,09,38,5.40
2011,04,15,09,39,5.40
2011,04,15,09,40,5.50
2011,04,15,09,41,5.60
2011,04,15,09,42,5.60
2011,04,15,09,43,5.70
2011,04,15,09,44,5.70
2011,04,15,09,45,5.60
2011,04,15,09,46,5.60
2011,04,15,09,47,5.60
2011,04,15,09,48,5.60
2011,04,15,09,49,5.70
2011,04,15,09,50,5.70
2011,04,15,09,51,5.70
2011,04,15,09,52,5.60
2011,04,15,09,53,5.60
2011,04,15,09,54,5.60
2011,04,15,09,55,5.60
2011,04,15,09,56,5.70
2011,04,15,09,57,5.70
2011,04,15,09,58,5.70
2011,04,15,09,59,5.70
2011,04,15,10,00,5.60
2011,04,15,10,01,5.60
2011,04,15,10,02,5.60
2011,04,15,10,03,5.50
2011,04,15,10,04,5.30
2011,04,15,10,05,5.30
2011,04,15,10,06,5.30
2011,04,15,10,07,5.30
2011,04,15,10,08,5.30
2011,04,15,10,09,5.30
2011,04,15,10,10,5.30
2011,04,15,10,11,5.20
2011,04,15,10,12,5.30
2011,04,15,10,13,5.30
2011,04,15,10,14,5.30
2011,04,15,10,15,5.40
2011,04,15,10,16,5.40
2011,04,15,10,17,5.40
2011,04,15,10,18,5.50
2011,04,15,10,19,5.50
2011,04,15,10,20,5.40
2011,04,15,10,21,5.40
2011,04,15,10,22,5.30
2011,04,15,10,23,5.30
2011,04,15,10,24,5.40
2011,04,15,10,25,5.40
2011,04,15,10,26,5.40
2011,04,15,10,27,5.50
2011,04,15,10,28,5.50
2011,04,15,10,29,5.40
2011,04,15,10,30,5.30
2011,04,15,10,31,5.30
2011,04,15,10,32,5.30
2011,04,15,10,33,5.30
2011,04,15,10,34,5.40
2011,04,15,10,35,5.50
2011,04,15,10,36,5.60
2011,04,15,10,37,5.70
2011,04,15,10,38,5.70
2011,04,15,10,39,5.70
2011,04,15,10,40,5.70
2011,04,15,10,41,5.70
2011,04,15,10,42,5.60
2011,04,15,10,43,5.60
2011,04,15,10,44,5.60
2011,04,15,10,45,5.60
2011,04,15,10,46,5.50
2011,04,15,10,47,5.50
2011,04,15,10,48,5.40
2011,04,15,10,49,5.40
2011,04,15,10,50,5.40
2011,04,15,10,51,5.40
2011,04,15,10,52,5.40
2011,04,15,10,53,5.30
2011,04,15,10,54,5.30
2011,04,15,10,55,5.30
2011,04,15,10,56,5.30
2011,04,15,10,57,5.40
2011,04,15,10,58,5.50
2011,04,15,10,59,5.60
2011,04,15,11,00,5.60
2011,04,15,11,01,5.60
2011,04,15,11,02,5.60
2011,04,15,11,03,5.60
2011,04,15,11,04,5.60
2011,04,15,11,05,5.60
2011,04,15,11,06,5.50
2011,04,15,11,07,5.40
2011,04,15,11,08,5.30
2011,04,15,11,09,5.30
2011,04,15,11,10,5.30
2011,04,15,11,11,5.40
2011,04,15,11,12,5.40
2011,04,15,11,13,5.50
2011,04,15,11,14,5.60
2011,04,15,11,15,5.60
2011,04,15,11,16,5.70
2011,04,15,11,17,5.90
2011,04,15,11,18,6.00
2011,04,15,11,19,6.20
2011,04,15,11,20,6.30
2011,04,15,11,21,6.30
2011,04,15,11,22,6.30
2011,04,15,11,23,6.30
2011,04,15,11,24,6.30
2011,04,15,11,25,6.30
2011,04,15,11,26,6.30
2011,04,15,11,27,6.20
2011,04,15,11,28,6.20
2011,04,15,11,29,6.10
2011,04,15,11,30,6.10
2011,04,15,11,31,6.10
2011,04,15,11,32,6.00
2011,04,15,11,33,5.90
2011,04,15,11,34,5.90
2011,04,15,11,35,5.90
2011,04,15,11,36,5.90
2011,04,15,11,37,5.80
2011,04,15,11,38,5.80
2011,04,15,11,39,5.80
2011,04,15,11,40,5.90
2011,04,15,11,41,5.90
2011,04,15,11,42,5.90
2011,04,15,11,43,5.90
2011,04,15,11,44,5.90
2011,04,15,11,45,5.80
2011,04,15,11,46,5.80
2011,04,15,11,47,5.80
2011,04,15,11,48,5.70
2011,04,15,11,49,5.80
2011,04,15,11,50,5.80
2011,04,15,11,51,5.70
2011,04,15,11,52,5.70
2011,04,15,11,53,5.70
2011,04,15,11,54,5.70
2011,04,15,11,55,5.70
2011,04,15,11,56,5.70
2011,04,15,11,57,5.70
2011,04,15,11,58,5.70
2011,04,15,11,59,5.60
2011,04,15,12,00,5.60
2011,04,15,12,01,5.60
2011,04,15,12,02,5.70
2011,04,15,12,03,5.70
2011,04,15,12,04,5.80
2011,04,15,12,05,5.80
2011,04,15,12,06,5.90
2011,04,15,12,07,5.90
2011,04,15,12,08,5.90
2011,04,15,12,09,5.90
2011,04,15,12,10,5.90
2011,04,15,12,11,5.90
2011,04,15,12,12,5.90
2011,04,15,12,13,5.90
2011,04,15,12,14,5.90
2011,04,15,12,15,5.90
2011,04,15,12,16,5.90
2011,04,15,12,17,5.90
2011,04,15,12,18,5.90
2011,04,15,12,19,5.90
2011,04,15,12,20,5.80
2011,04,15,12,21,5.80
2011,04,15,12,22,5.80
2011,04,15,12,23,5.80
2011,04,15,12,24,5.80
2011,04,15,12,25,5.80
2011,04,15,12,26,5.70
2011,04,15,12,27,5.70
2011,04,15,12,28,5.70
2011,04,15,12,29,5.70
2011,04,15,12,30,5.80
2011,04,15,12,31,5.80
2011,04,15,12,32,5.90
2011,04,15,12,33,5.90
2011,04,15,12,34,5.90
2011,04,15,12,35,5.90
2011,04,15,12,36,6.00
2011,04,15,12,37,6.00
2011,04,15,12,38,5.90
2011,04,15,12,39,5.90
2011,04,15,12,40,6.00
2011,04,15,12,41,6.00
2011,04,15,12,42,5.90
2011,04,15,12,43,5.90
2011,04,15,12,44,5.90
2011,04,15,12,45,5.90
2011,04,15,12,46,5.90
2011,04,15,12,47,6.00
2011,04,15,12,48,6.00
2011,04,15,12,49,6.10
2011,04,15,12,50,6.10
2011,04,15,12,51,6.20
2011,04,15,12,52,6.20
2011,04,15,12,53,6.30
2011,04,15,12,54,6.40
2011,04,15,12,55,6.50
2011,04,15,12,56,6.60
2011,04,15,12,57,6.80
2011,04,15,12,58,6.90
2011,04,15,12,59,6.90
2011,04,15,13,00,6.90
2011,04,15,13,01,7.00
2011,04,15,13,02,7.10
2011,04,15,13,03,7.20
2011,04,15,13,04,7.20
2011,04,15,13,05,7.10
2011,04,15,13,06,7.10
2011,04,15,13,07,7.00
2011,04,15,13,08,6.90
2011,04,15,13,09,6.80
2011,04,15,13,10,6.70
2011,04,15,13,11,6.60
2011,04,15,13,12,6.50
2011,04,15,13,13,6.50
2011,04,15,13,14,6.60
2011,04,15,13,15,6.70
2011,04,15,13,16,6.70
2011,04,15,13,17,6.70
2011,04,15,13,18,6.60
2011,04,15,13,19,6.50
2011,04,15,13,20,6.50
2011,04,15,13,21,6.40
2011,04,15,13,22,6.30
2011,04,15,13,23,6.30
2011,04,15,13,24,6.30
2011,04,15,13,25,6.30
2011,04,15,13,26,6.30
2011,04,15,13,27,6.40
2011,04,15,13,28,6.40
2011,04,15,13,29,6.40
2011,04,15,13,30,6.40
2011,04,15,13,31,6.40
2011,04,15,13,32,6.40
2011,04,15,13,33,6.40
2011,04,15,13,34,6.40
2011,04,15,13,35,6.40
2011,04,15,13,36,6.40
2011,04,15,13,37,6.50
2011,04,15,13,38,6.50
2011,04,15,13,39,6.40
2011,04,15,13,40,6.40
2011,04,15,13,41,6.40
2011,04,15,13,42,6.50
2011,04,15,13,43,6.50
2011,04,15,13,44,6.60
2011,04,15,13,45,6.60
2011,04,15,13,46,6.50
2011,04,15,13,47,6.50
2011,04,15,13,48,6.50
2011,04,15,13,49,6.50
2011,04,15,13,50,6.50
2011,04,15,13,51,6.40
2011,04,15,13,52,6.40
2011,04,15,13,53,6.40
2011,04,15,13,54,6.40
2011,04,15,13,55,6.40
2011,04,15,13,56,6.40
2011,04,15,13,57,6.40
2011,04,15,13,58,6.40
2011,04,15,13,59,6.40
2011,04,15,14,00,6.40
2011,04,15,14,01,6.50
2011,04,15,14,02,6.50
2011,04,15,14,03,6.50
2011,04,15,14,04,6.60
2011,04,15,14,05,6.60
2011,04,15,14,06,6.60
2011,04,15,14,07,6.60
2011,04,15,14,08,6.60
2011,04,15,14,09,6.60
2011,04,15,14,10,6.60
2011,04,15,14,11,6.50
2011,04,15,14,12,6.50
2011,04,15,14,13,6.50
2011,04,15,14,14,6.60
2011,04,15,14,15,6.70
2011,04,15,14,16,6.70
2011,04,15,14,17,6.80
2011,04,15,14,18,6.90
2011,04,15,14,19,7.00
2011,04,15,14,20,7.10
2011,04,15,14,21,7.10
2011,04,15,14,22,7.20
2011,04,15,14,23,7.30
2011,04,15,14,24,7.40
2011,04,15,14,25,7.30
2011,04,15,14,26,7.30
2011,04,15,14,27,7.20
2011,04,15,14,28,7.20
2011,04,15,14,29,7.30
2011,04,15,14,30,7.40
2011,04,15,14,31,7.50
2011,04,15,14,32,7.60
2011,04,15,14,33,7.70
2011,04,15,14,34,7.80
2011,04,15,14,35,7.90
2011,04,15,14,36,7.90
2011,04,15,14,37,7.80
2011,04,15,14,38,7.70
2011,04,15,14,39,7.60
2011,04,15,14,40,7.50
2011,04,15,14,41,7.50
2011,04,15,14,42,7.50
2011,04,15,14,43,7.60
2011,04,15,14,44,7.80
2011,04,15,14,45,7.80
2011,04,15,14,46,7.90
2011,04,15,14,47,7.90
2011,04,15,14,48,7.90
2011,04,15,14,49,7.90
2011,04,15,14,50,7.80
2011,04,15,14,51,7.70
2011,04,15,14,52,7.50
2011,04,15,14,53,7.40
2011,04,15,14,54,7.30
2011,04,15,14,55,7.30
2011,04,15,14,56,7.20
2011,04,15,14,57,7.20
2011,04,15,14,58,7.10
2011,04,15,14,59,7.00
2011,04,15,15,00,7.00
2011,04,15,15,01,6.90
2011,04,15,15,02,6.90
2011,04,15,15,03,6.80
2011,04,15,15,04,6.80
2011,04,15,15,05,6.80
2011,04,15,15,06,6.70
2011,04,15,15,07,6.70
2011,04,15,15,08,6.70
2011,04,15,15,09,6.70
2011,04,15,15,10,6.70
2011,04,15,15,11,6.70
2011,04,15,15,12,6.70
2011,04,15,15,13,6.70
2011,04,15,15,14,6.70
2011,04,15,15,15,6.70
2011,04,15,15,16,6.70
2011,04,15,15,17,6.80
2011,04,15,15,18,6.80
2011,04,15,15,19,6.90
2011,04,15,15,20,6.90
2011,04,15,15,21,6.90
2011,04,15,15,22,6.90
2011,04,15,15,23,6.90
2011,04,15,15,24,6.90
2011,04,15,15,25,6.90
2011,04,15,15,26,7.00
2011,04,15,15,27,7.00
2011,04,15,15,28,7.10
2011,04,15,15,29,7.10
2011,04,15,15,30,7.10
2011,04,15,15,31,7.10
2011,04,15,15,32,7.10
2011,04,15,15,33,7.20
2011,04,15,15,34,7.20
2011,04,15,15,35,7.20
2011,04,15,15,36,7.20
2011,04,15,15,37,7.10
2011,04,15,15,38,7.20
2011,04,15,15,39,7.20
2011,04,15,15,40,7.20
2011,04,15,15,41,7.20
2011,04,15,15,42,7.20
2011,04,15,15,43,7.30
2011,04,15,15,44,7.30
2011,04,15,15,45,7.20
2011,04,15,15,46,7.20
2011,04,15,15,47,7.20
2011,04,15,15,48,7.30
2011,04,15,15,49,7.30
2011,04,15,15,50,7.30
2011,04,15,15,51,7.30
2011,04,15,15,52,7.30
2011,04,15,15,53,7.30
2011,04,15,15,54,7.30
2011,04,15,15,55,7.40
2011,04,15,15,56,7.40
2011,04,15,15,57,7.50
2011,04,15,15,58,7.50
2011,04,15,15,59,7.50
2011,04,15,16,00,7.60
2011,04,15,16,01,7.60
2011,04,15,16,02,7.70
2011,04,15,16,03,7.70
2011,04,15,16,04,7.70
2011,04,15,16,05,7.70
2011,04,15,16,06,7.70
2011,04,15,16,07,7.70
2011,04,15,16,08,7.80
2011,04,15,16,09,7.80
2011,04,15,16,10,7.80
2011,04,15,16,11,7.90
2011,04,15,16,12,7.90
2011,04,15,16,13,7.90
2011,04,15,16,14,7.80
2011,04,15,16,15,7.80
2011,04,15,16,16,7.80
2011,04,15,16,17,7.80
2011,04,15,16,18,7.80
2011,04,15,16,19,7.80
2011,04,15,16,20,7.80
2011,04,15,16,21,7.80
2011,04,15,16,22,7.80
2011,04,15,16,23,7.80
2011,04,15,16,24,7.90
2011,04,15,16,25,7.90
2011,04,15,16,26,7.90
2011,04,15,16,27,7.80
2011,04,15,16,28,7.80
2011,04,15,16,29,7.80
2011,04,15,16,30,7.80
2011,04,15,16,31,7.80
2011,04,15,16,32,7.70
2011,04,15,16,33,7.70
2011,04,15,16,34,7.60
2011,04,15,16,35,7.60
2011,04,15,16,36,7.60
2011,04,15,16,37,7.60
2011,04,15,16,38,7.50
2011,04,15,16,39,7.50
2011,04,15,16,40,7.40
2011,04,15,16,41,7.40
2011,04,15,16,42,7.40
2011,04,15,16,43,7.40
2011,04,15,16,44,7.40
2011,04,15,16,45,7.40
2011,04,15,16,46,7.40
2011,04,15,16,47,7.40
2011,04,15,16,48,7.50
2011,04,15,16,49,7.50
2011,04,15,16,50,7.50
2011,04,15,16,51,7.50
2011,04,15,16,52,7.50
2011,04,15,16,53,7.60
2011,04,15,16,54,7.60
2011,04,15,16,55,7.60
2011,04,15,16,56,7.60
2011,04,15,16,57,7.50
2011,04,15,16,58,7.50
2011,04,15,16,59,7.40
2011,04,15,17,00,7.40
2011,04,15,17,01,7.40
2011,04,15,17,02,7.40
2011,04,15,17,03,7.30
2011,04,15,17,04,7.30
2011,04,15,17,05,7.40
2011,04,15,17,06,7.40
2011,04,15,17,07,7.40
2011,04,15,17,08,7.50
2011,04,15,17,09,7.40
2011,04,15,17,10,7.40
2011,04,15,17,11,7.30
2011,04,15,17,12,7.20
2011,04,15,17,13,7.20
2011,04,15,17,14,7.20
2011,04,15,17,15,7.20
2011,04,15,17,16,7.20
2011,04,15,17,17,7.20
2011,04,15,17,18,7.20
2011,04,15,17,19,7.20
2011,04,15,17,20,7.20
2011,04,15,17,21,7.20
2011,04,15,17,22,7.30
2011,04,15,17,23,7.30
2011,04,15,17,24,7.30
2011,04,15,17,25,7.20
2011,04,15,17,26,7.20
2011,04,15,17,27,7.20
2011,04,15,17,28,7.20
2011,04,15,17,29,7.10
2011,04,15,17,30,7.10
2011,04,15,17,31,7.10
2011,04,15,17,32,7.10
2011,04,15,17,33,7.10
2011,04,15,17,34,7.10
2011,04,15,17,35,7.10
2011,04,15,17,36,7.10
2011,04,15,17,37,7.00
2011,04,15,17,38,7.00
2011,04,15,17,39,6.90
2011,04,15,17,40,6.90
2011,04,15,17,41,6.90
2011,04,15,17,42,6.80
2011,04,15,17,43,6.80
2011,04,15,17,44,6.80
2011,04,15,17,45,6.70
2011,04,15,17,46,6.70
2011,04,15,17,47,6.70
2011,04,15,17,48,6.70
2011,04,15,17,49,6.70
2011,04,15,17,50,6.60
2011,04,15,17,51,6.60
2011,04,15,17,52,6.60
2011,04,15,17,53,6.60
2011,04,15,17,54,6.60
2011,04,15,17,55,6.60
2011,04,15,17,56,6.60
2011,04,15,17,57,6.60
2011,04,15,17,58,6.70
2011,04,15,17,59,6.70
2011,04,15,18,00,6.70
2011,04,15,18,01,6.70
2011,04,15,18,02,6.70
2011,04,15,18,03,6.80
2011,04,15,18,04,6.70
2011,04,15,18,05,6.70
2011,04,15,18,06,6.70
2011,04,15,18,07,6.70
2011,04,15,18,08,6.70
2011,04,15,18,09,6.70
2011,04,15,18,10,6.70
2011,04,15,18,11,6.70
2011,04,15,18,12,6.70
2011,04,15,18,13,6.70
2011,04,15,18,14,6.70
2011,04,15,18,15,6.70
2011,04,15,18,16,6.70
2011,04,15,18,17,6.70
2011,04,15,18,18,6.70
2011,04,15,18,19,6.70
2011,04,15,18,20,6.60
2011,04,15,18,21,6.60
2011,04,15,18,22,6.60
2011,04,15,18,23,6.50
2011,04,15,18,24,6.50
2011,04,15,18,25,6.50
2011,04,15,18,26,6.50
2011,04,15,18,27,6.50
2011,04,15,18,28,6.50
2011,04,15,18,29,6.50
2011,04,15,18,30,6.60
2011,04,15,18,31,6.60
2011,04,15,18,32,6.60
2011,04,15,18,33,6.60
2011,04,15,18,34,6.60
2011,04,15,18,35,6.60
2011,04,15,18,36,6.60
2011,04,15,18,37,6.60
2011,04,15,18,38,6.50
2011,04,15,18,39,6.50
2011,04,15,18,40,6.50
2011,04,15,18,41,6.40
2011,04,15,18,42,6.40
2011,04,15,18,43,6.40
2011,04,15,18,44,6.40
2011,04,15,18,45,6.40
2011,04,15,18,46,6.40
2011,04,15,18,47,6.30
2011,04,15,18,48,6.30
2011,04,15,18,49,6.30
2011,04,15,18,50,6.30
2011,04,15,18,51,6.30
2011,04,15,18,52,6.30
2011,04,15,18,53,6.30
2011,04,15,18,54,6.30
2011,04,15,18,55,6.30
2011,04,15,18,56,6.30
2011,04,15,18,57,6.30
2011,04,15,18,58,6.30
2011,04,15,18,59,6.30
2011,04,15,19,00,6.30
2011,04,15,19,01,6.30
2011,04,15,19,02,6.30
2011,04,15,19,03,6.30
2011,04,15,19,04,6.30
2011,04,15,19,05,6.30
2011,04,15,19,06,6.30
2011,04,15,19,07,6.30
2011,04,15,19,08,6.30
2011,04,15,19,09,6.30
2011,04,15,19,10,6.30
2011,04,15,19,11,6.30
2011,04,15,19,12,6.30
2011,04,15,19,13,6.30
2011,04,15,19,14,6.30
2011,04,15,19,15,6.30
2011,04,15,19,16,6.30
2011,04,15,19,17,6.30
2011,04,15,19,18,6.30
2011,04,15,19,19,6.30
2011,04,15,19,20,6.20
2011,04,15,19,21,6.20
2011,04,15,19,22,6.20
2011,04,15,19,23,6.20
2011,04,15,19,24,6.20
2011,04,15,19,25,6.20
2011,04,15,19,26,6.20
2011,04,15,19,27,6.20
2011,04,15,19,28,6.20
2011,04,15,19,29,6.20
2011,04,15,19,30,6.20
2011,04,15,19,31,6.10
2011,04,15,19,32,6.10
2011,04,15,19,33,6.10
2011,04,15,19,34,6.10
2011,04,15,19,35,6.00
2011,04,15,19,36,6.00
2011,04,15,19,37,6.00
2011,04,15,19,38,6.00
2011,04,15,19,39,6.00
2011,04,15,19,40,6.00
2011,04,15,19,41,6.00
2011,04,15,19,42,6.00
2011,04,15,19,43,6.00
2011,04,15,19,44,6.10
2011,04,15,19,45,6.00
2011,04,15,19,46,6.10
2011,04,15,19,47,6.00
2011,04,15,19,48,6.00
2011,04,15,19,49,6.00
2011,04,15,19,50,6.00
2011,04,15,19,51,6.00
2011,04,15,19,52,6.00
2011,04,15,19,53,5.90
2011,04,15,19,54,5.90
2011,04,15,19,55,5.90
2011,04,15,19,56,5.90
2011,04,15,19,57,5.90
2011,04,15,19,58,5.80
2011,04,15,19,59,5.80
2011,04,15,20,00,5.80
2011,04,15,20,01,5.80
2011,04,15,20,02,5.80
2011,04,15,20,03,5.70
2011,04,15,20,04,5.70
2011,04,15,20,05,5.70
2011,04,15,20,06,5.70
2011,04,15,20,07,5.60
2011,04,15,20,08,5.60
2011,04,15,20,09,5.60
2011,04,15,20,10,5.50
2011,04,15,20,11,5.50
2011,04,15,20,12,5.50
2011,04,15,20,13,5.40
2011,04,15,20,14,5.40
2011,04,15,20,15,5.40
2011,04,15,20,16,5.40
2011,04,15,20,17,5.40
2011,04,15,20,18,5.30
2011,04,15,20,19,5.30
2011,04,15,20,20,5.30
2011,04,15,20,21,5.30
2011,04,15,20,22,5.20
2011,04,15,20,23,5.20
2011,04,15,20,24,5.20
2011,04,15,20,25,5.20
2011,04,15,20,26,5.20
2011,04,15,20,27,5.20
2011,04,15,20,28,5.20
2011,04,15,20,29,5.20
2011,04,15,20,30,5.10
2011,04,15,20,31,5.10
2011,04,15,20,32,5.10
2011,04,15,20,33,5.10
2011,04,15,20,34,5.10
2011,04,15,20,35,5.10
2011,04,15,20,36,5.10
2011,04,15,20,37,5.00
2011,04,15,20,38,5.00
2011,04,15,20,39,4.90
2011,04,15,20,40,4.90
2011,04,15,20,41,4.90
2011,04,15,20,42,4.90
2011,04,15,20,43,4.90
2011,04,15,20,44,4.90
2011,04,15,20,45,4.80
2011,04,15,20,46,4.80
2011,04,15,20,47,4.80
2011,04,15,20,48,4.80
2011,04,15,20,49,4.80
2011,04,15,20,50,4.80
2011,04,15,20,51,4.70
2011,04,15,20,52,4.70
2011,04,15,20,53,4.70
2011,04,15,20,54,4.70
2011,04,15,20,55,4.70
2011,04,15,20,56,4.70
2011,04,15,20,57,4.60
2011,04,15,20,58,4.60
2011,04,15,20,59,4.60
2011,04,15,21,00,4.60
2011,04,15,21,01,4.50
2011,04,15,21,02,4.50
2011,04,15,21,03,4.50
2011,04,15,21,04,4.50
2011,04,15,21,05,4.40
2011,04,15,21,06,4.40
2011,04,15,21,07,4.40
2011,04,15,21,08,4.40
2011,04,15,21,09,4.40
2011,04,15,21,10,4.40
2011,04,15,21,11,4.30
2011,04,15,21,12,4.30
2011,04,15,21,13,4.30
2011,04,15,21,14,4.30
2011,04,15,21,15,4.30
2011,04,15,21,16,4.30
2011,04,15,21,17,4.30
2011,04,15,21,18,4.20
2011,04,15,21,19,4.20
2011,04,15,21,20,4.20
2011,04,15,21,21,4.20
2011,04,15,21,22,4.10
2011,04,15,21,23,4.10
2011,04,15,21,24,4.10
2011,04,15,21,25,4.10
2011,04,15,21,26,4.10
2011,04,15,21,27,4.00
2011,04,15,21,28,4.00
2011,04,15,21,29,4.00
2011,04,15,21,30,4.00
2011,04,15,21,31,3.90
2011,04,15,21,32,3.90
2011,04,15,21,33,3.90
2011,04,15,21,34,3.90
2011,04,15,21,35,3.90
2011,04,15,21,36,3.90
2011,04,15,21,37,3.90
2011,04,15,21,38,3.80
2011,04,15,21,39,3.80
2011,04,15,21,40,3.80
2011,04,15,21,41,3.80
2011,04,15,21,42,3.80
2011,04,15,21,43,3.70
2011,04,15,21,44,3.70
2011,04,15,21,45,3.60
2011,04,15,21,46,3.60
2011,04,15,21,47,3.60
2011,04,15,21,48,3.50
2011,04,15,21,49,3.50
2011,04,15,21,50,3.40
2011,04,15,21,51,3.40
2011,04,15,21,52,3.40
2011,04,15,21,53,3.30
2011,04,15,21,54,3.30
2011,04,15,21,55,3.30
2011,04,15,21,56,3.30
2011,04,15,21,57,3.20
2011,04,15,21,58,3.20
2011,04,15,21,59,3.20
2011,04,15,22,00,3.20
2011,04,15,22,01,3.20
2011,04,15,22,02,3.10
2011,04,15,22,03,3.10
2011,04,15,22,04,3.10
2011,04,15,22,05,3.10
2011,04,15,22,06,3.10
2011,04,15,22,07,3.10
2011,04,15,22,08,3.00
2011,04,15,22,09,3.00
2011,04,15,22,10,3.00
2011,04,15,22,11,2.90
2011,04,15,22,12,2.90
2011,04,15,22,13,2.90
2011,04,15,22,14,2.90
2011,04,15,22,15,2.90
2011,04,15,22,16,2.90
2011,04,15,22,17,2.90
2011,04,15,22,18,2.80
2011,04,15,22,19,2.80
2011,04,15,22,20,2.80
2011,04,15,22,21,2.80
2011,04,15,22,22,2.80
2011,04,15,22,23,2.80
2011,04,15,22,24,2.80
2011,04,15,22,25,2.70
2011,04,15,22,26,2.70
2011,04,15,22,27,2.70
2011,04,15,22,28,2.70
2011,04,15,22,29,2.70
2011,04,15,22,30,2.70
2011,04,15,22,31,2.70
2011,04,15,22,32,2.70
2011,04,15,22,33,2.70
2011,04,15,22,34,2.70
2011,04,15,22,35,2.70
2011,04,15,22,36,2.60
2011,04,15,22,37,2.60
2011,04,15,22,38,2.60
2011,04,15,22,39,2.60
2011,04,15,22,40,2.60
2011,04,15,22,41,2.60
2011,04,15,22,42,2.50
2011,04,15,22,43,2.50
2011,04,15,22,44,2.50
2011,04,15,22,45,2.50
2011,04,15,22,46,2.40
2011,04,15,22,47,2.40
2011,04,15,22,48,2.40
2011,04,15,22,49,2.40
2011,04,15,22,50,2.40
2011,04,15,22,51,2.40
2011,04,15,22,52,2.30
2011,04,15,22,53,2.30
2011,04,15,22,54,2.30
2011,04,15,22,55,2.30
2011,04,15,22,56,2.30
2011,04,15,22,57,2.30
2011,04,15,22,58,2.30
2011,04,15,22,59,2.30
2011,04,15,23,00,2.30
2011,04,15,23,01,2.30
2011,04,15,23,02,2.30
2011,04,15,23,03,2.20
2011,04,15,23,04,2.20
2011,04,15,23,05,2.20
2011,04,15,23,06,2.20
2011,04,15,23,07,2.20
2011,04,15,23,08,2.20
2011,04,15,23,09,2.20
2011,04,15,23,10,2.10
2011,04,15,23,11,2.10
2011,04,15,23,12,2.10
2011,04,15,23,13,2.10
2011,04,15,23,14,2.00
2011,04,15,23,15,2.00
2011,04,15,23,16,2.00
2011,04,15,23,17,2.00
2011,04,15,23,18,2.00
2011,04,15,23,19,1.90
2011,04,15,23,20,1.90
2011,04,15,23,21,1.90
2011,04,15,23,22,1.90
2011,04,15,23,23,1.90
2011,04,15,23,24,1.90
2011,04,15,23,25,1.90
2011,04,15,23,26,1.90
2011,04,15,23,27,1.90
2011,04,15,23,28,1.80
2011,04,15,23,29,1.80
2011,04,15,23,30,1.80
2011,04,15,23,31,1.80
2011,04,15,23,32,1.80
2011,04,15,23,33,1.80
2011,04,15,23,34,1.80
2011,04,15,23,35,1.80
2011,04,15,23,36,1.80
2011,04,15,23,37,1.80
2011,04,15,23,38,1.80
2011,04,15,23,39,1.80
2011,04,15,23,40,1.80
2011,04,15,23,41,1.80
2011,04,15,23,42,1.80
2011,04,15,23,43,1.80
2011,04,15,23,44,1.80
2011,04,15,23,45,1.80
2011,04,15,23,46,1.80
2011,04,15,23,47,1.80
2011,04,15,23,48,1.80
2011,04,15,23,49,1.80
2011,04,15,23,50,1.80
2011,04,15,23,51,1.70
2011,04,15,23,52,1.70
2011,04,15,23,53,1.70
2011,04,15,23,54,1.70
2011,04,15,23,55,1.70
2011,04,15,23,56,1.70
2011,04,15,23,57,1.70
2011,04,15,23,58,1.70
2011,04,15,23,59,1.70
